Time,TemperatureF,DewpointF,PressureIn,WindDirection,WindDirectionDegrees,WindSpeedMPH,WindSpeedGustMPH,Humidity,HourlyPrecipIn,Conditions,Clouds,dailyrainin,SoftwareType,DateUTC
2013-08-28 13:14:00,82.0,74.0,30.03,SW,235,0.0,3.0,77,-99.99,,,-99.99,,2013-08-28 17:14:00,
2013-08-28 13:24:00,82.0,74.0,30.02,SW,215,0.0,3.0,77,-99.99,,,-99.99,,2013-08-28 17:24:00,
2013-08-28 13:52:00,82.0,73.0,30.02,WSW,249,1.0,2.0,75,-99.99,,,-99.99,,2013-08-28 17:52:00,
2013-08-28 14:12:00,83.0,73.0,30.02,SSW,205,2.0,6.0,73,-99.99,,,-99.99,,2013-08-28 18:12:00,
2013-08-28 14:22:00,82.0,72.0,30.02,South,184,2.0,6.0,73,-99.99,,,-99.99,,2013-08-28 18:22:00,
2013-08-28 14:42:00,82.0,72.0,30.02,SSW,201,2.0,7.0,71,-99.99,,,-99.99,,2013-08-28 18:42:00,
2013-08-28 14:53:00,82.0,72.0,30.01,South,191,3.0,7.0,72,-99.99,,,-99.99,,2013-08-28 18:53:00,
2013-08-28 15:12:00,83.0,73.0,30.01,SE,125,2.0,7.0,71,-99.99,,,-99.99,,2013-08-28 19:12:00,
2013-08-28 15:22:00,83.0,73.0,30.01,South,174,2.0,5.0,71,-99.99,,,-99.99,,2013-08-28 19:22:00,
2013-08-28 15:42:00,83.0,73.0,30.01,SSE,156,1.0,6.0,72,-99.99,,,-99.99,,2013-08-28 19:42:00,
2013-08-28 15:52:00,82.0,71.0,30.01,South,172,2.0,7.0,69,-99.99,,,-99.99,,2013-08-28 19:52:00,
2013-08-28 16:12:00,82.0,72.0,30.00,WSW,250,2.0,7.0,72,-99.99,,,-99.99,,2013-08-28 20:12:00,
2013-08-28 16:23:00,81.0,72.0,30.01,ENE,70,2.0,8.0,74,-99.99,,,-99.99,,2013-08-28 20:23:00,
2013-08-28 16:43:00,82.0,73.0,30.02,SSE,147,1.0,6.0,75,-99.99,,,-99.99,,2013-08-28 20:43:00,
2013-08-28 16:52:00,81.0,73.0,30.02,East,98,2.0,5.0,76,-99.99,,,-99.99,,2013-08-28 20:52:00,
2013-08-28 17:12:00,80.0,74.0,30.03,South,188,1.0,6.0,81,-99.99,,,-99.99,,2013-08-28 21:12:00,
2013-08-28 17:22:00,79.0,73.0,30.03,SSE,152,1.0,6.0,81,-99.99,,,-99.99,,2013-08-28 21:22:00,
2013-08-28 17:57:00,76.0,71.0,30.02,SE,137,1.0,3.0,85,-99.99,,,-99.99,,2013-08-28 21:57:00,
2013-08-28 18:15:00,76.0,72.0,30.02,West,266,1.0,4.0,87,-99.99,,,-99.99,,2013-08-28 22:15:00,
2013-08-28 18:25:00,75.0,71.0,30.02,SE,143,0.0,3.0,88,-99.99,,,-99.99,,2013-08-28 22:25:00,
2013-08-28 18:43:00,74.0,71.0,30.03,SE,142,2.0,6.0,89,-99.99,,,-99.99,,2013-08-28 22:43:00,
2013-08-28 18:54:00,73.0,70.0,30.03,ESE,103,1.0,4.0,90,-99.99,,,-99.99,,2013-08-28 22:54:00,
2013-08-28 19:13:00,73.0,70.0,30.03,SE,137,0.0,3.0,90,-99.99,,,-99.99,,2013-08-28 23:13:00,
2013-08-28 19:22:00,73.0,70.0,30.03,WNW,285,0.0,1.0,91,-99.99,,,-99.99,,2013-08-28 23:22:00,
2013-08-28 19:42:00,72.0,69.0,30.03,WNW,285,0.0,1.0,91,-99.99,,,-99.99,,2013-08-28 23:42:00,
2013-08-28 19:53:00,72.0,69.0,30.03,South,172,1.0,2.0,91,-99.99,,,-99.99,,2013-08-28 23:53:00,
2013-08-28 20:12:00,71.0,69.0,30.04,South,172,0.0,1.0,92,-99.99,,,-99.99,,2013-08-29 00:12:00,
2013-08-28 21:13:00,70.0,68.0,30.06,SSE,166,0.0,1.0,93,-99.99,,,-99.99,,2013-08-29 01:13:00,
2013-08-28 21:22:00,70.0,68.0,30.06,SSE,166,0.0,0.0,93,-99.99,,,-99.99,,2013-08-29 01:22:00,
2013-08-28 21:42:00,70.0,68.0,30.05,SSE,167,0.0,1.0,94,-99.99,,,-99.99,,2013-08-29 01:42:00,
2013-08-28 21:52:00,70.0,68.0,30.06,SSE,166,0.0,0.0,94,-99.99,,,-99.99,,2013-08-29 01:52:00,
2013-08-28 22:03:00,70.0,68.0,30.06,SSE,166,0.0,0.0,94,-99.99,,,-99.99,,2013-08-29 02:03:00,
2013-08-28 22:12:00,70.0,68.0,30.06,SSE,166,0.0,0.0,94,-99.99,,,-99.99,,2013-08-29 02:12:00,
2013-08-28 22:22:00,69.0,67.0,30.06,SSE,167,0.0,0.0,94,-99.99,,,-99.99,,2013-08-29 02:22:00,
2013-08-28 23:11:00,69.0,67.0,30.05,SSE,166,0.0,0.0,94,-99.99,,,-99.99,,2013-08-29 03:11:00,
2013-08-28 23:23:00,69.0,67.0,30.05,SSE,167,0.0,0.0,94,-99.99,,,-99.99,,2013-08-29 03:23:00,
2013-08-28 23:45:00,69.0,67.0,30.06,SSE,166,0.0,0.0,94,-99.99,,,-99.99,,2013-08-29 03:45:00,
2013-08-28 23:57:00,69.0,67.0,30.05,SSE,166,0.0,0.0,94,-99.99,,,-99.99,,2013-08-29 03:57:00,